When you browse on this site, cookies collect data to enhance your experience and personalize the content and advertising you see.
Visit our Privacy Policy to learn more. By continuing to use the site, you agree to this use of cookies and data.

Previsão horária em Albufeira

Hoje, 13 Agosto, Quinta-feira

Tempo Temperatura Precipitação Vento Pressão Humidade
00:00 +18°C° 0 mm 3 m/s 757 mmHg 96%
01:00 +17°C° 0 mm 3 m/s 757 mmHg 96%
02:00 +17°C° 0 mm 3 m/s 756 mmHg 96%
03:00 +17°C° 0 mm 3 m/s 756 mmHg 94%
04:00 +16°C° 0 mm 3 m/s 757 mmHg 93%
05:00 +16°C° 0 mm 3 m/s 757 mmHg 92%
06:00 +19°C° 0 mm 3 m/s 757 mmHg 79%
07:00 +21°C° 0 mm 3 m/s 757 mmHg 65%
08:00 +25°C° 0 mm 3 m/s 757 mmHg 52%
09:00 +28°C° 0 mm 3 m/s 757 mmHg 44%
10:00 +30°C° 0 mm 3 m/s 757 mmHg 37%
11:00 +33°C° 0 mm 4 m/s 757 mmHg 29%
12:00 +33°C° 0 mm 4 m/s 757 mmHg 30%
13:00 +34°C° 0 mm 5 m/s 757 mmHg 31%
14:00 +34°C° 0 mm 6 m/s 756 mmHg 31%
15:00 +32°C° 0 mm 6 m/s 756 mmHg 35%
16:00 +30°C° 0 mm 7 m/s 756 mmHg 38%
17:00 +29°C° 0 mm 7 m/s 756 mmHg 42%
18:00 +27°C° 0 mm 7 m/s 756 mmHg 50%
19:00 +23°C° 0 mm 7 m/s 757 mmHg 58%
20:00 +21°C° 0 mm 7 m/s 757 mmHg 67%
21:00 +20°C° 0 mm 7 m/s 757 mmHg 70%
22:00 +18°C° 0 mm 7 m/s 757 mmHg 73%
23:00 +18°C° 0 mm 7 m/s 757 mmHg 77%

Amanhã, 14 Agosto, Sexta-feira

Tempo Temperatura Precipitação Vento Pressão Humidade
00:00 +17°C° 0 mm 6 m/s 757 mmHg 80%
01:00 +17°C° 0 mm 6 m/s 757 mmHg 83%
02:00 +16°C° 0 mm 5 m/s 757 mmHg 87%
03:00 +16°C° 0 mm 5 m/s 756 mmHg 88%
04:00 +17°C° 0 mm 4 m/s 756 mmHg 89%
05:00 +15°C° 0 mm 4 m/s 756 mmHg 90%
06:00 +19°C° 0 mm 4 m/s 756 mmHg 78%
07:00 +21°C° 0 mm 4 m/s 757 mmHg 66%
08:00 +25°C° 0 mm 4 m/s 757 mmHg 54%
09:00 +27°C° 0 mm 5 m/s 757 mmHg 45%
10:00 +29°C° 0 mm 5 m/s 757 mmHg 36%
11:00 +33°C° 0 mm 5 m/s 757 mmHg 28%
12:00 +33°C° 0 mm 6 m/s 756 mmHg 28%
13:00 +33°C° 0 mm 7 m/s 756 mmHg 29%
14:00 +33°C° 0 mm 8 m/s 756 mmHg 29%
15:00 +32°C° 0 mm 8 m/s 756 mmHg 36%
16:00 +29°C° 0 mm 8 m/s 756 mmHg 42%
17:00 +27°C° 0 mm 8 m/s 755 mmHg 49%
18:00 +23°C° 0 mm 8 m/s 756 mmHg 58%
19:00 +21°C° 0 mm 8 m/s 756 mmHg 68%
20:00 +18°C° 0 mm 8 m/s 757 mmHg 77%
21:00 +17°C° 0 mm 7 m/s 757 mmHg 80%
22:00 +17°C° 0 mm 7 m/s 757 mmHg 82%
23:00 +16°C° 0 mm 6 m/s 757 mmHg 84%

Depois de amanhã, 15 Agosto, Sábado

Tempo Temperatura Precipitação Vento Pressão Humidade
00:00 +16°C° 0 mm 5 m/s 757 mmHg 86%
01:00 +15°C° 0 mm 5 m/s 757 mmHg 87%
02:00 +15°C° 0 mm 4 m/s 756 mmHg 89%
03:00 +15°C° 0 mm 4 m/s 756 mmHg 91%
04:00 +15°C° 0 mm 4 m/s 756 mmHg 93%
05:00 +14°C° 0 mm 4 m/s 756 mmHg 94%
06:00 +18°C° 0 mm 4 m/s 757 mmHg 81%
07:00 +20°C° 0 mm 4 m/s 757 mmHg 68%
08:00 +23°C° 0 mm 4 m/s 757 mmHg 55%
09:00 +26°C° 0 mm 4 m/s 757 mmHg 48%
10:00 +28°C° 0 mm 5 m/s 757 mmHg 40%
11:00 +30°C° 0 mm 5 m/s 757 mmHg 33%
12:00 +30°C° 0 mm 6 m/s 757 mmHg 33%
13:00 +30°C° 0 mm 7 m/s 757 mmHg 33%
14:00 +31°C° 0 mm 8 m/s 756 mmHg 34%
15:00 +29°C° 0 mm 8 m/s 756 mmHg 38%
16:00 +27°C° 0 mm 8 m/s 756 mmHg 43%
17:00 +26°C° 0 mm 8 m/s 756 mmHg 47%
18:00 +23°C° 0 mm 8 m/s 756 mmHg 59%
19:00 +21°C° 0 mm 8 m/s 756 mmHg 70%
20:00 +18°C° 0 mm 7 m/s 757 mmHg 81%
21:00 +17°C° 0 mm 7 m/s 757 mmHg 83%
22:00 +17°C° 0 mm 7 m/s 757 mmHg 84%
23:00 +16°C° 0 mm 7 m/s 757 mmHg 85%

16 Agosto, Domingo

Tempo Temperatura Precipitação Vento Pressão Humidade
00:00 +16°C° 0 mm 6 m/s 757 mmHg 86%
01:00 +16°C° 0 mm 6 m/s 756 mmHg 88%
02:00 +15°C° 0 mm 6 m/s 756 mmHg 89%
03:00 +15°C° 0 mm 6 m/s 756 mmHg 90%
04:00 +15°C° 0 mm 6 m/s 756 mmHg 92%
05:00 +15°C° 0 mm 5 m/s 756 mmHg 93%
06:00 +17°C° 0 mm 5 m/s 757 mmHg 81%
07:00 +20°C° 0 mm 5 m/s 757 mmHg 69%
08:00 +23°C° 0 mm 5 m/s 757 mmHg 58%
09:00 +26°C° 0 mm 5 m/s 757 mmHg 50%
10:00 +28°C° 0 mm 6 m/s 757 mmHg 43%
11:00 +30°C° 0 mm 6 m/s 757 mmHg 36%
12:00 +30°C° 0 mm 7 m/s 757 mmHg 36%
13:00 +30°C° 0 mm 7 m/s 757 mmHg 35%
14:00 +31°C° 0 mm 8 m/s 756 mmHg 35%
15:00 +29°C° 0 mm 8 m/s 756 mmHg 41%
16:00 +27°C° 0 mm 8 m/s 756 mmHg 46%
17:00 +26°C° 0 mm 8 m/s 756 mmHg 52%
18:00 +23°C° 0 mm 8 m/s 756 mmHg 58%
19:00 +21°C° 0 mm 8 m/s 757 mmHg 65%
20:00 +20°C° 0 mm 8 m/s 757 mmHg 72%
21:00 +18°C° 0 mm 7 m/s 757 mmHg 74%
22:00 +17°C° 0 mm 7 m/s 757 mmHg 77%
23:00 +17°C° 0 mm 6 m/s 757 mmHg 79%

17 Agosto, Segunda-feira

Tempo Temperatura Precipitação Vento Pressão Humidade
00:00 +16°C° 0 mm 6 m/s 757 mmHg 82%
01:00 +16°C° 0 mm 6 m/s 757 mmHg 85%
02:00 +16°C° 0 mm 5 m/s 757 mmHg 88%
03:00 +15°C° 0 mm 5 m/s 757 mmHg 88%
04:00 +15°C° 0 mm 5 m/s 757 mmHg 88%
05:00 +15°C° 0 mm 5 m/s 757 mmHg 89%
06:00 +19°C° 0 mm 5 m/s 757 mmHg 76%
07:00 +21°C° 0 mm 5 m/s 757 mmHg 62%
08:00 +24°C° 0 mm 6 m/s 757 mmHg 49%
09:00 +28°C° 0 mm 5 m/s 757 mmHg 42%
10:00 +30°C° 0 mm 5 m/s 757 mmHg 34%
11:00 +34°C° 0 mm 5 m/s 757 mmHg 26%
12:00 +35°C° 0 mm 5 m/s 756 mmHg 25%
13:00 +36°C° 0 mm 6 m/s 756 mmHg 24%
14:00 +36°C° 0 mm 7 m/s 755 mmHg 23%
15:00 +35°C° 0 mm 7 m/s 755 mmHg 28%
16:00 +33°C° 0 mm 8 m/s 755 mmHg 33%
17:00 +31°C° 0 mm 8 m/s 755 mmHg 38%
18:00 +28°C° 0 mm 8 m/s 755 mmHg 49%
19:00 +26°C° 0 mm 8 m/s 756 mmHg 59%
20:00 +23°C° 0 mm 8 m/s 756 mmHg 70%
21:00 +22°C° 0 mm 8 m/s 756 mmHg 73%
22:00 +22°C° 0 mm 8 m/s 756 mmHg 76%
23:00 +21°C° 0 mm 7 m/s 756 mmHg 80%

18 Agosto, Terça-feira

Tempo Temperatura Precipitação Vento Pressão Humidade
00:00 +21°C° 0 mm 7 m/s 756 mmHg 83%
01:00 +20°C° 0 mm 7 m/s 756 mmHg 86%
02:00 +20°C° 0 mm 7 m/s 755 mmHg 88%
03:00 +20°C° 0 mm 7 m/s 755 mmHg 89%
04:00 +20°C° 0 mm 7 m/s 756 mmHg 89%
05:00 +20°C° 0 mm 7 m/s 756 mmHg 90%
06:00 +22°C° 0 mm 6 m/s 756 mmHg 79%
07:00 +24°C° 0 mm 6 m/s 756 mmHg 68%
08:00 +28°C° 0 mm 5 m/s 756 mmHg 56%
09:00 +30°C° 0 mm 5 m/s 756 mmHg 48%
10:00 +34°C° 0 mm 4 m/s 756 mmHg 39%
11:00 +37°C° 0 mm 4 m/s 756 mmHg 30%
12:00 +37°C° 0 mm 4 m/s 755 mmHg 29%
13:00 +39°C° 0 mm 5 m/s 755 mmHg 27%
14:00 +40°C° 0 mm 6 m/s 754 mmHg 26%
15:00 +38°C° 0 mm 7 m/s 754 mmHg 32%
16:00 +35°C° 0 mm 7 m/s 754 mmHg 38%
17:00 +33°C° 0 mm 8 m/s 754 mmHg 45%
18:00 +31°C° 0 mm 8 m/s 754 mmHg 54%
19:00 +27°C° 0 mm 8 m/s 755 mmHg 64%
20:00 +24°C° 0 mm 8 m/s 755 mmHg 74%
21:00 +24°C° 0 mm 7 m/s 755 mmHg 75%
22:00 +23°C° 0 mm 7 m/s 755 mmHg 76%
23:00 +23°C° 0 mm 6 m/s 755 mmHg 77%
Mostrar mais